Theta_e
338 344 350 352 351 350 349 347 346 348 348 348 348 347 346 346 344 346 345 342 340 339 340 341 340 340 339 336 335 335 335 336 337 336 336 333 333 332 331 331 331 326 330
341 346 347 350 351 350 349 348 347 347 347 347 347 347 347 346 344 343 344 342 339 338 338 339 336 338 337 336 336 334 333 334 334 334 333 334 336 335 336 333 332 328 333
342 346 347 348 349 349 348 347 346 346 345 345 346 346 346 346 345 343 342 341 338 337 336 336 336 336 337 334 333 333 334 333 332 331 330 322 324 332 332 332 331 330 331
343 345 346 345 348 349 348 346 345 345 345 344 345 346 347 345 344 343 341 342 337 336 335 335 335 336 334 334 333 333 334 331 330 328 321 322 325 330 330 330 330 330 330
342 344 345 345 348 349 347 346 345 345 345 345 348 346 347 345 344 343 342 339 337 336 334 332 333 333 333 332 333 334 333 331 329 324 320 321 321 328 331 330 329 330 329
341 342 342 346 348 348 346 345 346 345 347 346 347 347 346 344 344 343 341 340 335 335 335 334 332 332 331 330 331 330 331 330 325 319 320 324 321 329 329 329 329 328 328
340 341 343 345 346 346 345 345 346 346 346 345 345 345 344 344 343 341 340 338 337 336 335 334 332 330 329 328 328 328 328 327 318 318 319 321 323 330 330 329 328 328 329
339 341 343 338 341 343 343 345 345 346 346 345 344 344 344 343 341 340 339 338 336 336 334 333 331 328 327 326 325 325 325 322 318 315 316 318 328 329 329 329 330 330 330
339 339 339 340 338 336 339 340 342 344 343 343 343 343 341 340 339 338 337 337 335 336 334 331 328 326 324 323 322 324 325 320 313 315 319 320 330 329 328 329 329 330 330
338 338 338 337 338 338 338 333 335 337 339 340 339 336 334 335 335 334 332 334 333 331 330 329 327 325 325 325 325 325 323 320 314 315 316 319 329 329 330 330 331 332 334
334 335 337 337 337 335 334 330 331 332 332 332 331 328 325 325 324 324 327 331 333 331 329 327 326 325 324 322 323 323 321 315 314 315 316 326 330 331 332 333 335 334 334
329 331 333 334 335 334 336 333 335 333 332 330 328 324 323 322 322 324 323 326 329 328 329 326 324 323 318 314 315 319 316 316 315 315 317 327 329 330 331 332 333 334 335
329 330 331 331 334 335 334 333 331 331 329 326 323 322 322 322 322 321 320 320 319 319 318 319 317 315 315 315 315 316 316 316 315 315 319 326 328 330 331 331 332 334 335
328 329 329 330 333 335 335 333 329 327 327 324 322 321 321 320 319 319 318 317 316 315 314 314 315 316 315 316 316 317 317 316 316 317 317 321 328 330 332 332 332 334 335
327 327 328 332 332 333 332 332 330 326 325 323 322 321 321 320 319 318 316 316 315 315 314 315 316 316 315 315 316 317 317 317 317 318 317 318 325 331 331 334 335 333 334
327 327 330 331 332 331 330 330 328 325 323 323 322 322 322 321 319 319 317 317 314 314 316 317 317 316 315 316 317 318 317 317 318 318 319 322 324 328 330 333 332 333 333
328 329 329 330 332 331 330 328 327 326 325 323 323 322 322 321 319 319 318 317 316 315 316 316 316 315 315 318 316 318 321 319 319 321 322 320 323 321 325 328 331 332 332
327 329 331 331 331 330 329 328 327 325 324 323 323 322 322 322 321 319 319 318 319 317 317 317 319 320 320 318 314 315 314 315 317 319 319 318 318 318 319 320 322 328 331
326 327 329 331 330 330 329 328 327 326 324 323 323 322 322 322 322 320 320 320 319 318 318 320 322 321 320 316 314 313 313 313 316 318 317 316 315 314 314 314 312 316 323
326 327 327 330 330 331 331 329 329 328 326 323 323 323 323 323 322 321 320 321 320 322 322 322 322 322 320 316 316 316 316 315 314 315 314 315 313 312 310 310 309 308 315
326 326 325 329 330 330 329 328 327 326 325 323 323 324 324 324 323 322 322 322 323 322 323 323 322 321 320 320 318 317 315 313 312 315 314 313 311 309 305 304 304 304 305
322 326 326 328 329 329 329 329 329 329 326 325 326 324 325 324 324 324 324 325 324 323 323 323 321 319 319 320 316 314 307 308 310 314 312 309 306 304 302 301 300 301 301
308 307 319 326 328 329 328 326 324 327 327 326 326 325 326 327 326 327 327 327 326 325 324 324 322 320 317 319 319 312 306 304 310 311 306 305 303 300 299 298 297 298 298
303 307 307 307 326 328 328 327 324 325 323 325 326 326 328 328 327 328 328 327 327 326 325 324 323 321 320 317 318 318 317 316 310 307 304 301 301 299 297 296 294 295 296
299 301 304 304 306 324 326 326 325 323 325 325 326 326 327 328 329 329 329 329 327 326 324 324 322 321 321 319 318 318 318 318 318 313 306 299 297 295 294 294 293 292 292
297 300 301 301 301 307 317 324 325 324 323 323 323 324 324 327 328 328 328 327 327 326 324 323 323 322 320 320 320 321 319 317 316 315 313 302 298 292 293 292 292 290 290
Wind_Speed
9 11 18 18 19 18 18 18 17 15 16 15 16 16 17 17 17 16 15 15 15 15 16 16 16 16 18 17 16 17 16 16 14 16 13 15 15 14 14 13 12 8 14
13 15 18 19 18 17 16 16 16 15 15 15 15 15 17 17 18 17 17 14 16 16 15 15 15 16 18 16 14 13 12 13 14 14 14 14 14 14 15 14 12 10 13
15 14 15 19 19 16 16 16 16 15 15 15 14 15 16 19 19 18 19 15 15 17 16 15 15 16 16 14 13 10 12 13 12 12 11 5 6 11 12 12 11 11 11
15 13 13 18 19 17 16 16 15 15 15 15 15 15 17 18 19 18 18 17 16 16 16 16 15 15 14 13 11 11 15 13 11 10 5 5 5 11 11 10 10 10 10
15 12 12 17 20 18 16 15 15 15 16 15 15 16 18 19 19 18 16 16 16 16 16 15 15 14 13 12 14 15 13 13 9 8 5 4 3 7 9 9 8 8 8
14 12 13 18 20 19 16 15 15 15 14 14 15 18 18 19 17 16 15 14 15 15 15 14 14 13 12 12 14 13 12 11 8 5 4 5 3 8 7 7 6 5 4
14 10 13 17 19 19 16 15 14 14 14 14 15 18 19 18 17 16 14 13 13 15 13 13 12 11 10 10 11 11 10 8 5 4 3 3 4 6 7 7 6 5 4
15 12 11 13 15 16 16 15 14 14 13 15 16 18 19 18 17 16 14 12 13 14 14 12 10 9 8 8 9 10 8 6 4 4 2 2 5 4 5 5 5 4 4
13 12 9 10 11 11 12 11 12 13 15 15 16 17 17 17 16 15 14 11 13 13 12 11 9 7 7 7 7 7 6 6 4 2 2 1 5 3 3 3 4 4 6
11 13 11 10 9 8 8 11 12 13 14 13 13 12 12 11 12 11 12 12 13 12 11 9 8 6 7 7 6 6 6 5 3 2 1 2 3 4 4 4 4 6 9
11 13 11 11 8 7 7 9 13 13 14 13 12 11 8 5 7 7 10 12 10 10 9 8 6 5 6 5 4 6 5 2 2 1 1 3 4 5 5 6 8 8 8
16 15 13 13 13 9 8 9 9 9 7 7 6 6 5 6 5 6 8 10 9 7 7 6 5 4 4 1 2 4 2 2 1 2 1 3 4 5 5 6 8 8 8
18 12 14 14 14 10 9 6 5 5 5 5 7 5 5 5 4 4 3 3 3 5 2 3 2 1 0 1 1 1 1 2 1 1 1 3 4 7 7 7 7 7 5
17 13 14 15 14 12 8 7 7 5 6 6 6 7 4 3 4 4 3 4 3 2 3 2 1 1 1 1 1 0 0 1 0 0 2 3 3 5 8 7 6 5 6
16 15 15 13 15 11 12 8 7 7 6 7 7 6 4 4 4 4 4 4 3 3 3 2 2 1 2 2 1 1 1 1 2 1 1 3 3 7 11 10 9 5 7
16 17 15 14 13 12 11 10 7 7 5 7 6 7 7 5 4 4 4 4 4 4 3 3 3 3 3 2 2 2 4 3 3 4 2 2 6 8 9 13 9 7 6
16 17 18 15 14 14 13 9 7 7 7 6 7 7 8 7 6 5 4 4 4 4 4 3 3 3 2 2 2 3 2 2 3 5 4 3 3 10 11 14 16 8 5
14 17 18 13 14 14 11 9 7 7 7 6 7 6 9 9 8 6 4 4 4 4 4 4 4 3 2 2 1 2 1 2 3 4 4 3 3 4 9 15 17 20 11
15 14 17 16 16 16 11 9 8 9 7 6 6 6 9 8 8 6 6 6 6 5 5 4 3 3 3 3 3 3 3 1 2 3 5 5 5 4 4 10 16 19 21
14 13 14 13 16 15 10 8 6 6 7 6 7 7 9 7 9 7 6 7 6 5 5 3 3 4 3 2 2 2 3 4 3 4 4 5 5 4 4 4 4 7 17
14 12 15 16 17 13 11 11 10 9 7 6 5 9 10 8 9 8 5 6 7 6 6 6 3 4 4 2 1 2 5 5 5 4 4 4 6 6 5 5 5 4 6
7 14 17 17 15 13 10 9 8 8 6 8 7 7 9 9 10 8 6 6 7 6 5 5 4 2 2 4 2 1 1 1 3 3 3 4 6 4 6 7 7 8 6
6 8 6 16 15 14 14 8 5 4 3 4 5 5 8 10 10 9 8 6 7 6 6 6 6 7 3 2 4 4 2 3 2 2 3 4 5 5 5 6 7 7 7
5 7 7 14 9 11 13 12 14 10 8 6 6 6 7 9 9 8 7 5 5 3 5 7 4 3 3 3 1 3 2 3 3 3 2 3 4 5 5 4 5 6 7
7 5 7 13 17 7 7 7 8 6 2 2 3 8 6 5 5 5 6 4 4 3 3 4 4 4 3 3 3 2 3 4 4 3 3 3 3 4 4 4 4 4 6
8 8 8 13 12 15 4 9 11 12 7 5 3 5 4 4 5 6 6 6 5 3 4 3 3 4 4 3 3 3 2 2 2 3 3 2 2 3 3 3 3 3 4
Wind_Direction
176 164 159 155 151 146 138 134 129 127 129 128 132 129 132 126 123 117 115 109 109 107 102 102 100 90 96 93 85 75 67 66 70 76 73 80 79 83 79 73 70 59 67
149 155 157 154 148 147 142 137 134 132 135 136 134 140 137 132 127 124 113 110 111 107 106 107 104 103 95 96 81 70 71 74 70 62 57 59 73 65 75 68 74 66 58
149 153 156 152 147 149 145 140 138 138 141 146 144 143 145 139 132 125 113 113 113 111 111 109 112 108 101 89 79 73 99 94 84 73 60 43 64 76 67 62 63 66 66
146 153 156 151 146 148 147 143 142 142 146 152 154 152 146 144 136 126 124 117 116 113 113 112 116 109 98 87 77 86 113 103 90 79 57 46 43 73 73 70 64 63 54
144 151 158 149 145 148 148 147 148 147 146 160 162 160 149 144 133 125 116 118 119 117 114 112 115 114 100 84 84 97 114 102 95 81 70 59 27 78 78 72 60 58 48
145 150 157 149 147 147 151 153 152 152 149 145 154 152 145 133 123 121 119 124 121 119 117 114 112 110 100 87 87 91 110 104 90 79 67 40 24 76 74 71 68 56 40
146 147 154 148 149 148 153 156 150 151 143 138 135 133 128 125 120 118 121 129 127 122 118 114 109 104 95 89 84 84 102 113 102 95 65 33 348 77 72 66 58 48 29
146 148 147 144 146 150 153 154 150 148 140 138 134 126 125 123 121 119 121 126 129 127 125 117 112 107 100 91 81 82 92 112 106 98 79 23 335 38 64 57 48 21 354
144 142 138 145 146 146 147 146 147 139 134 135 134 130 130 132 131 132 130 128 129 117 122 124 121 113 93 80 79 77 74 112 132 131 96 350 321 45 38 29 13 348 334
149 147 144 138 145 144 149 140 133 130 125 133 127 122 127 128 133 136 127 128 131 129 129 126 122 105 85 72 67 64 75 85 125 80 343 280 331 15 23 8 343 316 318
161 162 155 145 144 137 137 139 128 127 120 118 120 120 107 111 120 122 117 125 129 131 134 131 119 103 80 49 32 33 72 66 127 194 281 303 347 2 360 358 7 8 356
167 167 165 161 165 149 146 144 137 134 134 129 126 127 120 119 128 116 119 122 126 131 132 129 122 105 70 32 350 31 48 24 146 197 257 320 346 2 6 359 357 352 346
165 165 166 165 167 156 151 144 138 137 135 131 132 133 131 123 113 107 110 112 127 123 94 89 80 43 98 101 90 62 57 55 59 190 304 307 1 11 4 356 348 339 339
166 161 163 170 166 161 155 155 144 142 144 143 146 139 133 131 129 131 131 149 150 145 152 142 137 230 259 241 200 214 151 148 184 165 274 304 10 17 19 7 345 10 83
168 162 167 166 169 163 165 156 151 152 155 152 149 146 139 146 150 144 155 161 166 159 172 181 206 211 228 235 240 227 284 254 221 174 216 249 53 53 26 12 26 63 78
172 168 160 172 167 164 168 162 157 151 154 154 156 161 156 156 158 162 159 175 180 184 188 190 188 195 213 200 261 264 244 229 223 167 168 121 56 62 44 30 13 24 83
175 166 163 174 167 170 165 164 160 161 161 166 171 166 169 160 167 164 167 175 189 184 192 187 187 197 203 213 245 274 233 231 229 172 148 128 91 68 48 39 27 19 74
174 176 158 172 170 167 167 169 165 165 166 180 177 170 174 172 172 165 169 193 186 179 181 186 193 187 205 176 253 269 291 269 267 151 126 114 61 63 58 55 41 38 38
171 178 165 172 174 174 171 170 171 171 170 180 176 176 179 175 176 172 182 191 178 178 194 189 188 174 189 199 223 234 247 341 38 100 107 85 81 67 82 69 55 41 41
167 176 176 171 176 178 170 168 173 173 180 172 181 183 181 183 179 177 180 186 174 183 191 191 179 192 198 205 221 268 33 46 58 85 94 87 81 69 59 39 50 42 47
165 182 175 179 180 178 180 176 181 181 175 175 178 185 183 182 183 191 188 180 181 181 187 190 169 185 229 182 70 91 58 44 60 78 86 87 79 70 56 41 41 38 37
168 178 184 186 181 179 178 179 184 185 182 178 185 187 191 183 189 194 180 184 184 183 184 178 171 170 231 175 166 87 129 23 49 73 92 96 84 73 64 53 59 53 39
50 58 223 183 185 180 167 150 128 137 144 161 182 191 199 192 192 194 188 182 186 184 191 191 186 188 187 181 201 147 128 221 142 141 66 80 90 76 62 54 50 57 51
14 329 33 24 221 183 165 164 163 181 177 193 175 191 197 200 195 194 187 171 177 188 200 197 173 161 160 196 208 222 236 145 187 188 160 99 75 80 73 61 59 46 38
34 14 52 45 347 172 168 159 161 163 150 133 149 177 178 171 173 165 145 148 216 210 222 197 167 181 178 181 193 205 219 213 222 195 191 164 101 79 64 71 60 66 50
25 35 53 60 16 330 64 177 185 191 171 140 147 187 176 181 190 184 173 170 165 176 196 197 161 198 201 218 203 208 236 262 218 192 195 127 131 89 79 71 54 53 67